sat.trackr.live / text

‹ back to catalog

ONEWEB-0436

NORAD 51633 · 2022-012M

PAYLOAD ACTIVE UNKNOWN

§ Identity

Operator
Country
UK
Launch date
2022-02-10
Launch site
FRGUI
Launch vehicle
Mass (kg)
RCS (m²)

Purposes: comms

External: N2YO · Heavens-Above · Gunter

§ Orbital elements

Epoch: 2026-05-25T03:03:46.421568Z

Period
109.29 min
Inclination
87.9161°
Eccentricity
0.0001683
Mean motion
13.17649290 rev/d
Perigee alt
1,192.4 km
Apogee alt
1,195.0 km
Semi-major
7,571.8 km
B*
5.7811e-6
RAAN
10.4298°
Arg perigee
78.4707°
Mean anomaly
281.6614°
Rev number
21,064

§ Raw data

ONEWEB-04361 51633U 22012M   26145.12762062  .00000015  00000+0  57811-5 0  99912 51633  87.9161  10.4298 0001683  78.4707 281.6614 13.17649290210640

JSON: /api/v1/satellites/51633 · /tle

For live sub-satellite position, see the globe view (requires WebGL).

§ Visibility from observer

Set your observer location to see the next 7 days of passes ≥ 10°. The values pass through the URL so the page stays shareable.

No JS? Fill the form by hand. The geolocation button needs JavaScript.